Regional Weather Roundup
Issued by NWS Jackson, KY

Home | Current Version | Previous Version | Text Only | Print | Product List | Glossary On
Versions: 1 2 3 4 5 6 7 8 9 10 11 12 13 14 15 16 17 18 19 20 21 22 23 24 25 26 27 28
000
ASUS43 KJKL 181910
RWRJKL

EAST KENTUCKY HOURLY WEATHER ROUNDUP
NATIONAL WEATHER SERVICE JACKSON KY
300 PM EDT WED OCT 18 2017

NOTE: "FAIR" INDICATES FEW OR NO CLOUDS BELOW 12,000 FEET WITH
NO SIGNIFICANT WEATHER AND/OR OBSTRUCTIONS TO VISIBILITY.

* THESE REPORTS ARE NOT UNDER NWS QUALITY CONTROL AND MAY NOT
  REPORT WEATHER SUCH AS PRECIPITATION AND FOG.

KYZ079-080-083-085-087-088-110-112-115-119-120-182000
...EASTERN KENTUCKY...

CITY           SKY/WX    TMP DP  RH WIND       PRES   REMARKS
JACKSON        SUNNY     67  40  37 VRB5      30.29F
LONDON         SUNNY     67  40  37 SW6       30.29F
SOMERSET*      SUNNY     64  43  45 S5        30.30F
MONTICELLO*    SUNNY     69  45  41 W13       30.30F
WILLIAMSBURG*  CLEAR     68  45  42 CALM      30.29F
MIDDLESBORO*   SUNNY     68  43  40 S3        30.30F
HARLAN APT*    CLEAR     68  41  37 SW3       30.30F
PIKE CO APT*     N/A     67  41  38 NW3       30.29F
BIG SANDY APT* CLEAR     68  41  37 S5        30.29F
MOREHEAD APT*  CLEAR     68  41  37 S7        30.29F
$$

KYZ035-036-041-042-044-050-067-078-099-182000
...CENTRAL KENTUCKY...

CITY           SKY/WX    TMP DP  RH WIND       PRES   REMARKS
MT STERLING*   SUNNY     68  45  42 W5        30.30S
FLEMING/MASON* SUNNY     68  44  41 SW5       30.28F
DANVILLE*      SUNNY     68  45  42 SW5       30.29F
LEXINGTON      SUNNY     70  46  42 SW10      30.27F
FRANKFORT      SUNNY     70  42  36 VRB7      30.25F
LOUISVILLE     PTSUNNY   71  45  39 S8        30.24F
LEBANON*         N/A     66  43  42 S6        30.28F
GLASGOW*       SUNNY     71  43  36 SW3       30.26F
BOWLING GREEN  SUNNY     71  44  37 S12       30.26F
$$

KYZ091>093-OHZ055-061-077-WVZ005-015-034-035-042-182000
...SOUTHERN OHIO/WEST VIRGINIA...

CITY           SKY/WX    TMP DP  RH WIND       PRES   REMARKS
COVINGTON      MOSUNNY   68  46  45 S8        30.24F
COLUMBUS       SUNNY     68  43  40 S12       30.25F
DAYTON         MOSUNNY   66  44  45 S12       30.24F
WILMINGTON     SUNNY     68  42  38 S10       30.25F
HUNTINGTON     SUNNY     69  41  36 S6        30.27F
CHARLESTON     MOSUNNY   71  41  33 CALM      30.27F
PINEVILLE*     SUNNY     72  34  24 MISG      30.33F
BECKLEY        SUNNY     66  37  34 SE8       30.31F
BLUEFIELD      SUNNY     65  31  28 S5        30.33F
LOGAN CO APT*    N/A     68  39  34 CALM      30.28F
$$

VAZ002-007-008-TNZ017-027-036-066-071-182000
...SOUTHWEST VIRGINIA/EAST TENNESSEE...

CITY           SKY/WX    TMP DP  RH WIND       PRES   REMARKS
WISE*          SUNNY     64  41  42 S6        30.33F
JONESVILLE*      N/A     68  39  34 CALM      30.32F
ABINGDON*      SUNNY     70  38  31 W5        30.31F
BRISTOL        MOSUNNY   69  43  38 VRB3      30.30F
MORRISTOWN*    CLEAR     68  46  45 W6        30.30F
SEVIERVILLE*   CLEAR     68  45  42 CALM      30.29F
KNOXVILLE      MOSUNNY   67  48  50 CALM      30.29F
LAFOLLETTE*    CLEAR     66  48  52 CALM      30.33F
OAK RIDGE      SUNNY     66  48  52 CALM      30.30F
CROSSVILLE     SUNNY     66  42  41 MISG      30.30F
NASHVILLE      MOSUNNY   71  41  33 S6        30.27F
$$

...KEY TO REMARKS...
VSB - VISIBILITY IN MILES
WCI - WIND CHILL INDEX
HX  - HEAT INDEX

$$




USA.gov is the U.S. government's official web portal to all federal, state and local government web resources and services.